Weather History for Thermal, CA

Change the Weather History Date:

Monday, May 20, 2013

  Actual Average Record
Temperature  
Mean Temperature 80 °F 79 °F  
Max Temperature 100 °F 96 °F 111 °F (1967)
Min Temperature 60 °F 63 °F 52 °F (1972)
Degree Days  
Heating Degree Days 0 0  
Month to date heating degree days 0 0  
Since 1 July heating degree days 1124 1180  
Cooling Degree Days 15 14  
Month to date cooling degree days 294 244  
Year to date cooling degree days 722 500  
Growing Degree Days 31 (Base 50)    
Moisture  
Dew Point 38 °F    
Average Humidity 36    
Maximum Humidity 65    
Minimum Humidity 7    
Precipitation  
Precipitation 0.00 in 0.00 in 0.00 in (2014)
Month to date precipitation 0.00 0.02  
Year to date precipitation 0.44 1.79  
Since 1 July precipitation 2.62 3.17  
Snow  
Snow 0.00 in - - ()
Month to date snowfall 0.0  
Year to date snowfall 0.0  
Since 1 July snowfall 0.0  
Snow Depth 0.00 in    
Sea Level Pressure  
Sea Level Pressure 29.82 in    
Wind  
Wind Speed 5 mph (NW)    
Max Wind Speed 15 mph    
Max Gust Speed 23 mph    
Visibility 10 miles    
Events      
T = Trace of Precipitation, MM = Missing Value Source: NWS Daily Summary

Daily Weather History Graph

Daily Weather History Graph

Search for Another Location

Airport:

Trip Planner

Search our weather history database for the weather conditions in past years. The results will help you decide how hot, cold, wet, or windy it might be!

Date:

Astronomy

May. 20, 2013 Rise Set
Actual Time 5:40 AM PDT 7:42 PM PDT
Civil Twilight 5:12 AM PDT 8:10 PM PDT
Nautical Twilight 4:38 AM PDT 8:44 PM PDT
Astronomical Twilight 4:02 AM PDT 9:20 PM PDT
Moon 3:07 PM PDT (5/20) 2:23 AM PDT (5/20)
Length of Visible Light 14h 57m
Length of Day
14h 01m
Waxing Gibbous, 76% of the Moon is Illuminated
May 20
Waxing Gibbous
May 24
Full
May 31
Last Quarter
Jun 8
New
Jun 16
First Quarter

Hourly Weather History & Observations

Time (PDT) Temp. Dew Point Humidity Pressure Visibility Wind Dir Wind Speed Gust Speed Precip Events Conditions
12:52 AM 79.0 °F 48.9 °F 35% 29.80 in 10.0 mi NNW 8.1 mph - N/A   Clear
1:52 AM 75.9 °F 50.0 °F 40% 29.80 in 10.0 mi NNW 5.8 mph - N/A   Clear
2:52 AM 77.0 °F 51.1 °F 40% 29.81 in 10.0 mi NNW 11.5 mph - N/A   Clear
3:52 AM 70.0 °F 50.0 °F 49% 29.79 in 10.0 mi NE 6.9 mph - N/A   Clear
4:52 AM 64.0 °F 48.9 °F 58% 29.81 in 10.0 mi NNE 4.6 mph - N/A   Clear
5:52 AM 63.0 °F 50.0 °F 63% 29.83 in 10.0 mi Calm Calm - N/A   Clear
6:52 AM 69.1 °F 53.1 °F 57% 29.86 in 10.0 mi Calm Calm - N/A   Clear
7:52 AM 80.1 °F 52.0 °F 38% 29.88 in 10.0 mi WNW 4.6 mph - N/A   Clear
8:52 AM 87.1 °F 43.0 °F 21% 29.89 in 10.0 mi Calm Calm - N/A   Clear
9:52 AM 90.0 °F 28.9 °F 11% 29.92 in 10.0 mi Calm Calm - N/A   Clear
10:52 AM 95.0 °F 25.0 °F 8% 29.89 in 10.0 mi WNW 9.2 mph - N/A   Clear
11:52 AM 96.1 °F 25.0 °F 8% 29.88 in 10.0 mi North 5.8 mph - N/A   Clear
12:52 PM 98.1 °F 24.1 °F 7% 29.87 in 10.0 mi NW 9.2 mph - N/A   Clear
1:52 PM 97.0 °F 24.1 °F 7% 29.87 in 10.0 mi NW 8.1 mph 16.1 mph N/A   Clear
2:52 PM 99.0 °F 24.1 °F 7% 29.82 in 10.0 mi North 9.2 mph - N/A   Clear
3:52 PM 99.0 °F 23.0 °F 7% 29.79 in 10.0 mi Variable 5.8 mph - N/A   Clear
4:52 PM 98.1 °F 23.0 °F 7% 29.77 in 10.0 mi Variable 3.5 mph - N/A   Clear
5:52 PM 98.1 °F 24.1 °F 7% 29.75 in 10.0 mi WSW 3.5 mph - N/A   Clear
6:52 PM 95.0 °F 30.0 °F 10% 29.75 in 10.0 mi SW 3.5 mph - N/A   Clear
7:52 PM 86.0 °F 37.0 °F 18% 29.76 in 10.0 mi ESE 8.1 mph - N/A   Clear
8:52 PM 75.9 °F 39.9 °F 27% 29.77 in 10.0 mi West 4.6 mph - N/A   Clear
9:52 PM 77.0 °F 46.9 °F 34% 29.80 in 10.0 mi WSW 4.6 mph - N/A   Clear
10:52 PM 73.0 °F 44.1 °F 35% 29.81 in 10.0 mi WSW 3.5 mph - N/A   Clear
11:52 PM 66.9 °F 46.0 °F 47% 29.81 in 10.0 mi Calm Calm - N/A   Clear